Regional Weather Roundup
Issued by NWS Newport/Morehead, NC

Current Version | Previous Version | Text Only | Print | Product List | Glossary On
Versions: 1 2 3 4 5 6 7 8 9 10 11 12 13 14 15 16 17 18 19 20 21 22 23 24 25 26 27 28 29 30 31 32 33 34 35 36 37 38 39 40 41 42 43 44 45 46 47 48 49 50
000
ASUS42 KMHX 181324
RWRMHX
WEATHER ROUNDUP FOR EASTERN NORTH CAROLINA
NATIONAL WEATHER SERVICE NEWPORT/MOREHEAD CITY NC
800 AM EST WED JAN 18 2017

NOTE: "FAIR" INDICATES FEW OR NO CLOUDS BELOW 12,000 FEET
WITH NO SIGNIFICANT WEATHER AND/OR OBSTRUCTIONS TO VISIBILITY

NCZ015>017-031-032-045>047-102-103-181400-
NORTH COAST

CITY           SKY/WX    TMP DP  RH WIND       PRES   REMARKS
EDENTON        CLOUDY    62  57  84 SW7       29.92F
ELIZABETH CITY LGT RAIN  59  56  89 SW10      29.89F
KITTY HAWK     NOT AVBL
MANTEO         CLOUDY    54  54 100 W5        29.92S

$$

NCZ045>047-081-094-103-104-181400-
CENTRAL COAST

CITY           SKY/WX    TMP DP  RH WIND       PRES   REMARKS
FRISCO         LGT RAIN  60  57  89 W13G21    29.95S FOG

$$

NCZ095-097-098-100-101-181400-
SOUTHERN COAST

CITY           SKY/WX    TMP DP  RH WIND       PRES   REMARKS
BEAUFORT       CLOUDY    60  56  86 SW13      29.97S
CEDAR ISLAND   NOT AVBL
JACKSONVILLE   MOCLDY    64  59  83 SW7       29.97S
PINEY ISLAND   PTSUNNY  N/A N/A N/A SW12      29.96S
WILMINGTON     PTCLDY    62  58  86 SW10      30.00F


$$

NCZ011>013-027>030-043-044-078>080-089-090>093-098-181400-
COASTAL PLAIN

CITY           SKY/WX    TMP DP  RH WIND       PRES   REMARKS
AHOSKIE          N/A     57  56  95 CALM      29.91R
CLINTON        CLOUDY    64  59  84 SW10      29.97F
ELIZABETHTOWN  CLOUDY    63  58  86 SW8       29.99S
GOLDSBORO      CLOUDY    62  61  96 SW8       29.93F
GREENVILLE     DRIZZLE   61  59  94 SW3       29.97S
HAVELOCK       CLOUDY    61  56  83 SW10      29.97F
KENANSVILLE    CLOUDY    63  57  82 SW6       29.97S
KINSTON        NOT AVBL
NEW BERN       CLOUDY    63  57  81 W7        29.97S
RICHLANDS      CLOUDY    62  58  86 SW9       29.98S
ROCKY MOUNT    CLOUDY    59  57  93 CALM      29.94S
WASHINGTON     RAIN      61  57  86 SW5       29.95F
WHITEVILLE     CLEAR     65  58  79 SW7       30.00F

$$

AMZ130-135-150-152-154-156-158-170-250-252-270-ANZ085-086-088-633-658-670-181400-
MARINE OBSERVATIONS

STATION/POSITION TIME  TEMP    WIND        PRES    WAVE   SWELL
                       AIR SEA DIR/SP/G            HT/PER HT/PER
                 (UTC) (F)     (DEG/KT/KT) (MB)    (FT/S) (FT/S)
CHESAPEAKE LIGHT NOT AVBL
64 E VA BEACH    1250   56 57              1011.6    4/ 5
DUCK             1300   57 45  220/ 15/ 18 1011.6
2 E DUCK         1300      45                N/A     1/10
OREGON INLET     1300   51 51  200/ 11/ 12 1013.0
13E OREGON INLT  NOT AVBL
HATTERAS CG      1300   60 54  230/ 12/ 16 1013.6
DIAMOND BUOY     1250   69 71  260/ 23/ 27 1013.9    8/ 6   2/10
CAPE LOOKOUT     1200   62     230/ 13/ 19 1014.7
BEAUFORT LAB     1300   60 50  250/  7/ 15 1014.1
30 SE NEW RVR IN 1308   62 61  240/ 21/ 27 1015.4
30 SE NEW RVR IN 1313      61                N/A     6/ 6
27 SE WRIGHTSVLE 1308   65 69  220/ 19/ 27 1015.6
5 SE WRIGHTSVLE  NOT AVBL
225 S CAPE HAT   1150   71 72  250/ 16/ 19 1019.2    5/ 5   2/ 8
41 SE CHARLESTON 1150   70 71  250/ 19/ 23 1018.7    4/ 5   2/10

$$




USA.gov is the U.S. government's official web portal to all federal, state and local government web resources and services.